SCP
0 0 0 0 0 0 0 0 0 0 0 0 0 0 0 0 0 0 0 0 0 0 0 0 0 0 0 0 0 0 0 0 0 0 0 0 0 0
0 0 0 0 0 0 0 0 0 0 0 0 0 0 0 0 0 0 0 0 0 0 0 0 0 0 0 0 0 0 0 0 0 0 0 0 0 0
0 0 0 0 0 0 0 0 0 0 0 0 0 0 0 0 0 0 0 0 0 0 0 0 0 0 0 0 0 0 0 0 0 0 0 0 0 0
0 0 0 0 0 0 0 0 0 0 0 0 0 0 0 0 0 0 0 0 0 0 0 0 0 0 0 0 0 0 0 0 0 0 0 0 0 0
0 0 0 0 0 0 0 0 0 0 0 0 0 0 0 0 0 0 0 0 0 0 0 0 0 0 0 0 0 0 0 0 0 0 0 0 0 0
0 0 0 0 0 0 0 0 0 0 0 0 0 0 0 0 0 0 0 0 0 0 0 0 0 0 0 0 0 0 0 0 0 0 0 0 0 0
0 0 0 0 0 0 0 0 0 0 0 0 0 0 0 0 0 0 0 0 0 0 0 0 0 0 0 0 0 0 0 0 0 0 0 0 0 0
0 0 0 0 0 0 0 0 0 0 0 0 0 0 0 0 0 0 0 0 0 0 0 0 0 0 0 0 0 0 0 0 0 0 0 0 0 0
0 0 0 0 0 0 0 0 0 0 0 0 0 0 0 0 0 0 0 0 0 0 0 0 0 0 0 0 0 0 0 0 0 0 0 0 0 0
0 0 0 0 0 0 0 0 0 0 0 0 0 0 0 0 0 0 0 0 0 0 0 0 0 0 0 0 0 0 0 0 0 0 0 0 0 0
0 0 0 0 0 0 0 0 0 0 0 0 0 0 0 0 0 0 0 0 0 0 0 0 0 0 0 0 0 0 0 0 0 0 0 0 0 0
0 0 0 0 0 0 0 0 0 0 0 0 0 0 0 0 0 0 0 0 0 0 0 0 0 0 0 0 0 0 0 0 0 0 0 0 0 0
0 0 0 0 0 0 0 0 0 0 0 0 0 0 0 0 0 0 0 0 0 0 0 0 0 0 0 0 0 0 0 0 0 0 0 0 0 0
0 0 0 0 0 0 0 0 0 0 0 0 0 0 0 0 0 0 0 0 0 0 0 0 0 0 0 0 0 0 0 0 0 0 0 0 0 0
0 0 0 0 0 0 0 0 0 0 0 0 0 0 0 0 0 0 0 0 0 0 0 0 0 0 0 0 0 0 0 0 0 0 0 0 0 0
0 0 0 0 0 0 0 0 0 0 0 0 0 0 0 0 0 0 0 0 0 0 0 0 0 0 0 0 0 0 0 0 0 0 0 0 0 0
0 0 0 0 0 0 0 0 0 0 0 0 0 0 0 0 0 0 0 0 0 0 0 0 0 0 0 0 0 0 0 0 0 0 0 0 0 0
0 0 0 0 0 0 0 0 0 0 0 0 0 0 0 0 0 0 0 0 0 0 0 0 0 0 0 0 0 0 0 0 0 0 0 0 0 0
0 0 0 0 0 0 0 0 0 0 0 0 0 0 0 0 0 0 0 0 0 0 0 0 0 0 0 0 0 0 0 0 0 0 0 0 0 0
0 0 0 0 0 0 0 0 0 0 0 0 0 0 0 0 0 0 0 0 0 0 0 0 0 0 0 0 0 0 0 0 0 0 0 0 0 0
0 0 0 0 0 0 0 0 0 0 0 0 0 0 0 0 0 0 0 0 0 0 0 0 0 0 0 0 0 0 0 0 0 0 0 0 0 0
0 0 0 0 0 0 0 0 0 0 0 0 0 0 0 0 0 0 0 0 0 0 0 0 0 0 0 0 0 0 0 0 0 0 0 0 0 0
0 0 0 0 0 0 0 0 0 0 0 0 0 0 0 0 0 0 0 0 0 0 0 0 0 0 0 0 0 0 0 0 0 0 0 0 0 0
Wind_Speed_500mb
90 93 96 99 99 102 103 102 90 67 70 78 83 75 65 59 60 56 54 51 52 52 53 57 60 57 56 56 53 53 54 56 55 57 48 50 50 55
88 91 94 94 92 95 97 98 97 97 88 73 74 77 77 58 63 58 54 52 50 53 54 57 60 56 58 61 56 55 57 56 55 49 47 54 63 68
86 90 93 91 93 92 92 94 97 96 98 92 86 80 73 73 61 64 60 54 54 57 54 51 54 57 62 59 51 52 56 59 57 60 58 64 68 71
90 89 92 90 94 92 93 92 95 96 97 91 83 83 81 62 70 66 67 57 61 58 64 54 52 52 57 53 50 48 49 54 53 52 56 55 54 55
91 93 96 92 97 93 93 94 94 93 89 97 92 81 79 74 77 65 68 66 60 61 64 53 51 55 55 57 49 47 48 47 45 44 45 47 49 50
95 95 95 98 98 100 93 95 92 94 93 93 93 95 91 84 74 67 69 62 58 60 60 55 49 56 53 51 47 45 42 41 42 44 43 43 43 46
94 97 95 94 92 91 104 95 90 89 94 98 98 95 92 87 83 76 71 57 63 61 60 55 52 56 54 48 42 42 43 44 40 39 39 39 39 42
91 91 95 90 87 95 85 94 85 82 89 88 94 96 88 90 83 72 69 62 66 63 57 55 54 54 54 47 45 46 44 42 41 38 37 35 38 39
95 92 91 91 95 82 82 86 83 85 81 90 91 84 87 79 68 72 70 67 71 59 53 56 57 56 55 49 48 46 44 45 40 36 33 35 37 36
88 95 95 96 95 89 84 86 84 86 84 95 98 87 76 69 70 72 67 67 66 54 54 52 56 60 56 48 49 46 45 43 35 32 33 35 34 35
85 88 92 95 93 86 84 90 88 87 83 85 80 86 76 72 71 69 70 67 67 64 61 61 60 58 59 53 50 47 46 39 34 34 34 34 33 33
84 87 86 92 93 88 82 89 90 91 83 87 78 85 81 82 72 74 72 80 73 67 70 69 66 59 47 58 56 54 48 42 36 34 33 33 32 35
87 90 89 79 82 87 87 87 90 86 78 79 80 81 79 78 76 79 74 73 72 74 65 75 75 67 55 36 66 63 55 45 37 35 33 33 31 39
83 88 89 83 73 82 86 92 92 89 78 81 88 81 85 82 79 74 70 71 70 68 67 66 73 75 73 56 36 59 58 53 42 36 33 33 34 37
78 77 79 83 75 80 83 83 86 89 85 84 89 91 90 84 77 72 68 76 75 74 72 67 59 61 64 62 51 40 50 48 41 35 31 31 33 37
83 82 75 72 77 79 85 84 87 90 89 89 91 92 89 86 82 77 75 84 78 73 68 61 59 60 59 56 48 44 43 29 30 30 28 32 32 36
81 83 85 77 73 82 88 90 89 91 89 90 92 95 94 92 90 87 87 85 83 82 76 71 67 59 54 52 51 47 40 35 31 30 30 34 32 34
78 84 85 83 80 76 83 96 91 92 91 93 94 97 100 98 99 96 92 89 89 83 80 76 71 63 56 49 47 43 40 35 33 33 33 36 33 29
75 83 87 81 77 80 79 90 96 97 95 96 101 103 101 98 103 103 100 95 93 88 83 77 73 66 61 58 46 41 41 37 34 34 33 35 37 29
74 76 82 84 81 81 83 85 90 95 98 102 104 104 103 105 106 107 105 103 101 92 82 80 75 71 66 58 44 36 36 37 34 32 31 34 35 32
62 69 73 79 84 85 85 84 89 97 101 103 105 106 108 109 109 110 108 107 102 94 87 85 75 63 54 47 38 37 35 35 33 30 30 32 33 33
60 55 55 69 80 84 83 83 87 93 97 99 100 102 102 104 102 103 102 104 97 88 86 78 67 61 53 48 43 37 34 33 31 29 29 30 29 22
68 60 53 44 60 76 77 77 79 85 91 92 90 93 94 92 91 89 90 86 84 82 77 68 59 51 49 47 42 37 34 30 28 27 26 29 32 34
Wind_Direction_500mb
272 271 268 269 269 270 269 267 256 257 262 268 276 280 281 278 270 267 261 262 256 261 265 268 268 273 275 283 279 267 261 263 264 265 265 266 269 270
272 272 271 271 269 263 266 268 267 263 260 264 267 276 280 275 272 265 263 256 257 266 268 266 272 278 274 279 272 260 259 257 254 249 247 260 264 265
274 273 273 272 270 269 266 265 263 263 261 268 270 272 268 276 263 267 254 254 255 255 261 267 270 279 280 272 265 256 252 253 254 250 255 258 261 264
275 273 272 271 270 269 266 266 266 264 262 263 272 273 266 262 275 254 245 258 249 263 265 261 270 274 275 269 260 258 259 259 259 259 261 267 271 274
279 276 274 271 268 268 268 266 265 264 264 267 264 259 267 268 264 249 247 247 252 255 255 261 267 273 274 264 257 255 254 257 258 258 263 268 274 277
280 278 276 274 272 269 264 267 264 261 263 261 259 263 262 260 247 250 243 243 252 259 250 261 261 272 270 253 253 254 253 252 256 262 265 270 276 281
274 275 278 277 277 275 263 266 263 263 260 261 262 260 259 255 249 252 243 247 252 243 247 258 258 272 253 248 246 249 252 256 259 262 265 272 276 284
274 273 275 277 275 273 275 268 269 264 266 262 259 256 264 260 260 259 237 256 232 239 245 252 255 256 246 242 244 249 253 255 256 263 266 274 283 293
268 270 275 275 275 273 273 269 269 265 266 268 267 259 260 262 260 253 248 244 243 246 249 244 253 241 239 242 243 246 249 254 258 258 270 278 287 296
270 268 267 269 270 273 274 272 266 264 262 258 264 262 261 262 256 261 258 243 234 237 236 235 239 232 235 237 239 243 249 250 248 263 271 279 289 295
277 268 265 267 270 269 270 267 267 264 261 255 258 256 254 251 253 251 231 228 226 230 231 233 227 229 230 229 233 237 240 242 257 263 272 279 285 293
289 278 270 264 265 266 266 264 262 259 258 256 254 255 259 250 247 241 243 235 233 232 229 226 225 221 215 222 226 231 232 238 252 258 270 275 279 292
288 287 281 271 265 267 264 261 261 260 257 257 260 250 248 245 250 241 236 233 239 235 232 226 222 220 211 209 218 225 229 232 247 256 263 268 276 292
287 283 280 276 265 263 264 262 260 258 254 250 245 248 236 245 241 237 239 232 231 234 236 227 227 219 215 215 209 222 228 230 242 252 259 261 278 291
291 287 282 274 267 263 260 260 259 255 251 246 240 241 241 244 238 237 229 223 222 221 223 228 227 222 217 221 220 214 215 225 237 244 253 264 280 290
297 291 284 277 268 262 264 260 255 253 252 249 244 242 239 232 231 232 224 220 219 219 219 220 220 218 215 217 217 211 215 215 225 233 258 275 287 295
298 295 290 281 275 268 261 258 253 250 245 243 240 238 235 229 225 218 220 217 216 213 208 208 210 213 214 217 213 209 217 231 243 251 265 276 286 293
289 283 278 278 277 272 268 262 252 248 246 243 241 240 238 230 221 217 217 216 218 214 211 208 205 201 206 210 212 212 222 233 243 255 268 279 287 295
284 278 271 269 267 270 266 257 258 256 251 246 242 241 237 232 224 218 217 216 213 212 211 211 204 201 200 209 218 223 230 234 240 256 271 281 289 296
296 288 272 267 267 265 264 261 256 256 253 248 242 240 236 231 223 219 218 216 215 208 206 204 203 204 208 210 211 221 225 235 239 255 269 277 287 296
308 304 286 275 272 268 266 264 259 255 255 250 244 239 233 227 221 219 218 214 211 207 199 198 201 204 207 209 216 222 225 236 245 257 267 279 289 296
327 310 300 289 281 276 269 265 258 250 245 244 242 236 227 222 216 212 208 204 206 202 199 197 197 200 203 210 214 220 223 236 250 262 273 281 289 289
348 338 325 298 282 280 272 265 259 249 244 239 231 226 220 211 208 203 203 204 198 198 196 188 195 196 205 210 215 222 226 232 242 258 270 278 287 295
Wind_Speed_850mb
90 93 96 99 99 102 103 102 90 67 70 78 83 75 65 59 60 56 54 51 52 52 53 57 60 57 56 56 53 53 54 56 55 57 48 50 50 55
88 91 94 94 92 95 97 98 97 97 88 73 74 77 77 58 63 58 54 52 50 53 54 57 60 56 58 61 56 55 57 56 55 49 47 54 63 68
86 90 93 91 93 92 92 94 97 96 98 92 86 80 73 73 61 64 60 54 54 57 54 51 54 57 62 59 51 52 56 59 57 60 58 64 68 71
90 89 92 90 94 92 93 92 95 96 97 91 83 83 81 62 70 66 67 57 61 58 64 54 52 52 57 53 50 48 49 54 53 52 56 55 54 55
91 93 96 92 97 93 93 94 94 93 89 97 92 81 79 74 77 65 68 66 60 61 64 53 51 55 55 57 49 47 48 47 45 44 45 47 49 50
95 95 95 98 98 100 93 95 92 94 93 93 93 95 91 84 74 67 69 62 58 60 60 55 49 56 53 51 47 45 42 41 42 44 43 43 43 46
94 97 95 94 92 91 104 95 90 89 94 98 98 95 92 87 83 76 71 57 63 61 60 55 52 56 54 48 42 42 43 44 40 39 39 39 39 42
91 91 95 90 87 95 85 94 85 82 89 88 94 96 88 90 83 72 69 62 66 63 57 55 54 54 54 47 45 46 44 42 41 38 37 35 38 39
95 92 91 91 95 82 82 86 83 85 81 90 91 84 87 79 68 72 70 67 71 59 53 56 57 56 55 49 48 46 44 45 40 36 33 35 37 36
88 95 95 96 95 89 84 86 84 86 84 95 98 87 76 69 70 72 67 67 66 54 54 52 56 60 56 48 49 46 45 43 35 32 33 35 34 35
85 88 92 95 93 86 84 90 88 87 83 85 80 86 76 72 71 69 70 67 67 64 61 61 60 58 59 53 50 47 46 39 34 34 34 34 33 33
84 87 86 92 93 88 82 89 90 91 83 87 78 85 81 82 72 74 72 80 73 67 70 69 66 59 47 58 56 54 48 42 36 34 33 33 32 35
87 90 89 79 82 87 87 87 90 86 78 79 80 81 79 78 76 79 74 73 72 74 65 75 75 67 55 36 66 63 55 45 37 35 33 33 31 39
83 88 89 83 73 82 86 92 92 89 78 81 88 81 85 82 79 74 70 71 70 68 67 66 73 75 73 56 36 59 58 53 42 36 33 33 34 37
78 77 79 83 75 80 83 83 86 89 85 84 89 91 90 84 77 72 68 76 75 74 72 67 59 61 64 62 51 40 50 48 41 35 31 31 33 37
83 82 75 72 77 79 85 84 87 90 89 89 91 92 89 86 82 77 75 84 78 73 68 61 59 60 59 56 48 44 43 29 30 30 28 32 32 36
81 83 85 77 73 82 88 90 89 91 89 90 92 95 94 92 90 87 87 85 83 82 76 71 67 59 54 52 51 47 40 35 31 30 30 34 32 34
78 84 85 83 80 76 83 96 91 92 91 93 94 97 100 98 99 96 92 89 89 83 80 76 71 63 56 49 47 43 40 35 33 33 33 36 33 29
75 83 87 81 77 80 79 90 96 97 95 96 101 103 101 98 103 103 100 95 93 88 83 77 73 66 61 58 46 41 41 37 34 34 33 35 37 29
74 76 82 84 81 81 83 85 90 95 98 102 104 104 103 105 106 107 105 103 101 92 82 80 75 71 66 58 44 36 36 37 34 32 31 34 35 32
62 69 73 79 84 85 85 84 89 97 101 103 105 106 108 109 109 110 108 107 102 94 87 85 75 63 54 47 38 37 35 35 33 30 30 32 33 33
60 55 55 69 80 84 83 83 87 93 97 99 100 102 102 104 102 103 102 104 97 88 86 78 67 61 53 48 43 37 34 33 31 29 29 30 29 22
68 60 53 44 60 76 77 77 79 85 91 92 90 93 94 92 91 89 90 86 84 82 77 68 59 51 49 47 42 37 34 30 28 27 26 29 32 34
Wind_Direction_850mb
272 271 268 269 269 270 269 267 256 257 262 268 276 280 281 278 270 267 261 262 256 261 265 268 268 273 275 283 279 267 261 263 264 265 265 266 269 270
272 272 271 271 269 263 266 268 267 263 260 264 267 276 280 275 272 265 263 256 257 266 268 266 272 278 274 279 272 260 259 257 254 249 247 260 264 265
274 273 273 272 270 269 266 265 263 263 261 268 270 272 268 276 263 267 254 254 255 255 261 267 270 279 280 272 265 256 252 253 254 250 255 258 261 264
275 273 272 271 270 269 266 266 266 264 262 263 272 273 266 262 275 254 245 258 249 263 265 261 270 274 275 269 260 258 259 259 259 259 261 267 271 274
279 276 274 271 268 268 268 266 265 264 264 267 264 259 267 268 264 249 247 247 252 255 255 261 267 273 274 264 257 255 254 257 258 258 263 268 274 277
280 278 276 274 272 269 264 267 264 261 263 261 259 263 262 260 247 250 243 243 252 259 250 261 261 272 270 253 253 254 253 252 256 262 265 270 276 281
274 275 278 277 277 275 263 266 263 263 260 261 262 260 259 255 249 252 243 247 252 243 247 258 258 272 253 248 246 249 252 256 259 262 265 272 276 284
274 273 275 277 275 273 275 268 269 264 266 262 259 256 264 260 260 259 237 256 232 239 245 252 255 256 246 242 244 249 253 255 256 263 266 274 283 293
268 270 275 275 275 273 273 269 269 265 266 268 267 259 260 262 260 253 248 244 243 246 249 244 253 241 239 242 243 246 249 254 258 258 270 278 287 296
270 268 267 269 270 273 274 272 266 264 262 258 264 262 261 262 256 261 258 243 234 237 236 235 239 232 235 237 239 243 249 250 248 263 271 279 289 295
277 268 265 267 270 269 270 267 267 264 261 255 258 256 254 251 253 251 231 228 226 230 231 233 227 229 230 229 233 237 240 242 257 263 272 279 285 293
289 278 270 264 265 266 266 264 262 259 258 256 254 255 259 250 247 241 243 235 233 232 229 226 225 221 215 222 226 231 232 238 252 258 270 275 279 292
288 287 281 271 265 267 264 261 261 260 257 257 260 250 248 245 250 241 236 233 239 235 232 226 222 220 211 209 218 225 229 232 247 256 263 268 276 292
287 283 280 276 265 263 264 262 260 258 254 250 245 248 236 245 241 237 239 232 231 234 236 227 227 219 215 215 209 222 228 230 242 252 259 261 278 291
291 287 282 274 267 263 260 260 259 255 251 246 240 241 241 244 238 237 229 223 222 221 223 228 227 222 217 221 220 214 215 225 237 244 253 264 280 290
297 291 284 277 268 262 264 260 255 253 252 249 244 242 239 232 231 232 224 220 219 219 219 220 220 218 215 217 217 211 215 215 225 233 258 275 287 295
298 295 290 281 275 268 261 258 253 250 245 243 240 238 235 229 225 218 220 217 216 213 208 208 210 213 214 217 213 209 217 231 243 251 265 276 286 293
289 283 278 278 277 272 268 262 252 248 246 243 241 240 238 230 221 217 217 216 218 214 211 208 205 201 206 210 212 212 222 233 243 255 268 279 287 295
284 278 271 269 267 270 266 257 258 256 251 246 242 241 237 232 224 218 217 216 213 212 211 211 204 201 200 209 218 223 230 234 240 256 271 281 289 296
296 288 272 267 267 265 264 261 256 256 253 248 242 240 236 231 223 219 218 216 215 208 206 204 203 204 208 210 211 221 225 235 239 255 269 277 287 296
308 304 286 275 272 268 266 264 259 255 255 250 244 239 233 227 221 219 218 214 211 207 199 198 201 204 207 209 216 222 225 236 245 257 267 279 289 296
327 310 300 289 281 276 269 265 258 250 245 244 242 236 227 222 216 212 208 204 206 202 199 197 197 200 203 210 214 220 223 236 250 262 273 281 289 289
348 338 325 298 282 280 272 265 259 249 244 239 231 226 220 211 208 203 203 204 198 198 196 188 195 196 205 210 215 222 226 232 242 258 270 278 287 295